Theta_e
306 306 306 307 306 308 309 310 309 309 310 309 309 311 311 310 310 310 310 311 311 311 312 312 313 314 319 325 329 330 334 339 344 344 343 343 343 342 344 344 343 344 345 342
306 307 307 308 308 309 309 310 310 311 312 312 311 312 312 310 309 309 310 310 310 309 310 311 312 312 314 318 323 327 330 334 341 344 343 342 343 343 345 344 345 345 339 339
307 307 307 307 309 311 311 311 311 313 312 311 311 311 310 309 309 309 309 308 308 308 308 309 310 310 312 314 318 323 326 328 331 338 343 343 343 343 342 343 338 337 339 340
307 306 308 307 310 312 313 311 312 311 312 313 311 313 310 309 308 308 307 306 306 306 307 307 308 309 310 311 313 319 324 327 332 338 344 343 341 342 341 339 335 340 336 336
307 307 307 309 310 312 311 311 310 311 313 313 312 308 310 309 309 307 306 306 307 312 313 314 314 312 310 310 312 312 319 327 329 340 344 343 342 340 339 339 337 336 337 340
306 307 308 309 312 311 310 309 309 310 307 311 311 309 311 308 308 307 308 314 314 314 313 312 313 314 314 314 311 312 319 327 330 339 342 342 341 337 336 334 334 335 338 340
308 309 308 312 312 307 305 306 307 310 311 311 308 309 309 309 309 311 316 316 314 312 311 311 311 312 314 315 314 311 317 324 330 334 339 341 339 336 336 333 332 336 341 345
309 309 310 310 309 308 307 305 306 311 313 310 310 312 310 308 315 317 316 314 313 312 310 310 311 312 314 316 316 313 313 323 331 333 336 338 337 335 334 331 333 335 336 341
309 312 310 310 310 309 308 307 306 310 311 311 310 310 310 310 317 316 314 313 311 311 312 311 312 314 316 316 317 317 313 323 330 333 334 335 336 335 332 331 333 336 337 343
309 312 310 310 309 308 308 308 311 304 308 313 313 313 312 310 310 315 314 312 312 312 312 312 312 314 317 317 317 320 320 320 329 332 333 334 335 333 333 333 335 335 340 346
310 309 311 310 310 308 307 309 312 308 314 315 316 313 309 313 315 314 313 312 312 313 313 313 314 315 316 317 315 323 319 323 329 330 331 333 333 334 334 334 334 337 343 346
311 310 313 312 310 308 308 309 309 308 312 312 313 313 310 313 313 313 312 313 313 311 313 314 315 316 317 317 317 325 320 326 327 329 330 332 334 334 336 336 337 341 345 347
311 310 314 310 308 308 310 311 310 310 312 314 316 313 311 313 313 314 313 314 313 312 314 317 317 318 318 319 318 327 328 323 327 329 329 332 335 336 338 341 342 344 345 346
312 312 314 314 311 308 312 313 311 310 316 313 314 313 312 312 313 314 314 315 317 314 320 319 319 318 318 319 332 336 333 332 331 333 336 338 339 342 343 343 344 344 345 345
308 310 311 313 313 313 314 314 315 315 313 313 312 312 312 312 313 314 316 317 318 315 320 318 316 316 316 318 329 331 334 339 341 341 341 342 344 344 345 347 346 346 345 344
307 312 314 313 312 313 315 313 313 314 314 313 311 312 311 314 314 316 316 315 317 318 317 314 314 314 316 318 328 330 336 344 344 344 343 344 345 345 346 345 345 344 343 343
307 308 311 313 313 313 314 313 312 311 311 313 314 313 314 315 314 312 312 312 315 315 314 312 312 313 313 318 329 331 333 343 344 343 342 341 342 341 340 342 341 340 342 343
308 312 316 316 310 314 310 314 315 315 313 312 311 313 314 313 312 311 311 313 310 312 311 311 312 312 312 321 328 330 334 340 341 341 340 340 339 338 338 339 339 340 339 338
308 311 316 316 312 311 311 315 316 314 313 312 315 313 312 312 311 312 310 309 310 310 310 310 310 311 312 318 324 328 330 331 340 340 339 339 338 336 335 334 334 334 335 334
308 311 316 314 315 309 308 315 313 311 316 312 313 312 312 311 314 313 310 311 310 309 310 309 310 311 311 313 320 326 329 329 328 339 338 337 337 335 334 334 333 333 333 332
317 315 314 314 315 312 311 314 313 318 312 314 313 312 311 313 312 311 310 310 309 309 309 309 309 310 311 312 319 326 328 329 328 337 337 336 335 335 334 333 333 333 332 331
309 314 313 315 316 315 314 314 314 311 309 313 314 313 312 312 311 310 310 309 309 309 309 309 309 310 311 312 323 327 327 326 327 327 335 333 333 333 333 334 332 332 331 329
309 309 313 313 310 309 311 312 311 310 314 314 312 311 311 311 311 310 309 309 309 308 309 309 309 310 311 313 322 327 325 326 327 332 333 332 333 333 333 331 330 330 331 329
309 308 308 308 308 309 309 310 312 312 313 313 311 310 310 311 310 309 308 308 308 307 307 308 310 311 311 314 322 326 327 326 328 333 333 333 332 331 331 331 331 330 329 329
307 306 307 307 309 310 311 311 313 313 312 311 311 310 310 309 310 309 309 309 308 307 307 307 310 311 312 314 323 327 327 330 331 334 333 332 331 331 331 330 330 331 331 331
306 307 310 310 309 310 309 311 311 311 312 310 309 308 307 307 309 310 309 308 307 307 306 308 310 311 313 318 321 325 325 327 332 334 332 332 329 326 325 326 326 331 331 331
Wind_Speed
3 4 2 5 7 6 2 3 5 6 6 7 11 18 14 7 5 7 8 10 9 16 15 12 19 23 17 16 24 25 30 33 32 30 34 33 36 39 37 37 32 27 26 25
6 2 5 4 4 4 3 2 4 6 6 10 9 23 18 12 6 7 7 8 10 9 12 21 19 18 25 22 23 29 29 31 33 32 30 27 33 39 39 40 34 29 28 25
3 6 6 3 4 5 2 3 4 7 7 8 8 22 9 4 4 5 6 6 6 8 11 13 15 21 26 27 23 29 33 37 37 44 32 28 22 25 26 32 28 33 27 26
4 4 1 6 4 3 3 4 5 9 6 3 3 12 6 3 8 6 7 8 10 11 9 10 17 19 25 27 31 30 32 35 37 38 41 36 30 26 33 36 38 27 24 25
9 4 5 3 4 5 7 6 6 6 6 3 4 5 3 7 7 9 8 8 7 7 10 13 13 22 31 31 31 33 35 35 41 41 42 40 31 28 23 26 23 25 21 22
7 3 4 6 5 5 3 3 4 3 2 2 9 7 17 4 4 4 4 5 6 10 13 14 17 21 25 29 31 32 30 35 40 39 44 42 38 32 28 24 24 22 20 20
4 2 1 2 1 5 6 5 4 4 2 5 2 3 15 12 10 5 3 8 9 9 11 14 13 13 23 28 30 32 29 32 37 41 42 42 40 36 39 34 27 21 19 20
1 5 0 2 3 5 5 7 4 5 4 10 10 6 7 4 5 4 5 9 10 11 12 13 15 13 23 27 31 31 29 33 36 40 41 43 41 38 42 34 26 26 25 24
1 5 3 8 2 4 4 4 4 2 2 1 5 8 9 10 7 5 8 8 10 14 17 17 14 19 23 26 32 34 32 32 33 39 40 40 43 40 39 33 26 25 24 27
3 6 8 3 1 6 6 3 3 2 3 5 5 6 8 8 10 7 12 11 13 17 19 20 17 16 24 28 35 41 38 35 34 39 40 43 45 44 39 29 25 26 29 27
2 4 4 3 4 5 3 2 1 3 3 3 4 5 6 8 8 12 10 9 12 19 22 21 21 21 22 29 33 34 28 32 30 34 34 38 41 36 29 26 26 31 29 27
3 3 4 8 13 7 6 5 4 3 5 4 3 12 7 8 9 10 9 10 13 18 23 23 19 16 20 28 32 26 26 28 31 36 38 34 28 24 24 25 30 33 28 28
3 1 4 6 3 4 2 3 4 2 2 8 6 10 5 7 11 11 8 8 12 23 29 19 12 12 19 27 30 24 17 27 30 34 30 28 27 24 27 30 30 28 29 30
5 6 8 9 9 4 12 15 11 7 5 8 12 23 21 18 13 13 7 7 12 21 13 14 19 19 17 25 19 20 15 16 24 27 28 26 27 29 30 29 29 30 28 31
8 6 6 9 14 16 20 21 20 18 17 13 20 21 21 12 11 12 6 7 12 23 14 17 24 24 18 17 19 24 12 12 19 22 26 27 31 31 30 28 28 26 29 33
3 3 3 12 17 20 19 18 18 19 20 19 17 19 9 5 5 5 9 11 12 15 20 13 19 19 18 17 12 13 13 12 17 18 22 29 30 29 29 28 27 30 30 32
4 2 5 9 3 10 10 7 6 5 9 9 9 11 3 6 8 7 13 13 8 13 17 18 18 18 19 21 21 15 16 6 20 22 22 24 27 27 28 31 31 31 34 34
8 5 4 3 3 4 5 4 4 7 8 8 7 8 6 7 9 9 12 3 10 12 16 17 15 15 27 28 22 21 15 4 13 19 22 25 27 27 29 33 32 32 33 33
14 9 3 3 4 6 8 5 2 2 14 4 7 7 7 9 8 7 3 3 10 14 14 13 18 20 25 25 23 18 13 17 7 17 22 25 28 29 29 31 32 33 32 30
8 9 4 2 3 5 6 3 3 3 8 5 6 9 12 10 13 10 6 10 14 13 12 12 21 19 20 27 23 16 4 5 14 15 24 26 30 30 29 32 33 32 30 28
3 2 9 8 5 7 6 4 4 2 7 3 4 13 15 15 13 17 13 14 13 14 13 19 23 16 20 26 24 16 5 2 6 8 24 26 29 35 36 33 32 29 26 24
5 4 3 3 5 6 4 4 5 8 4 5 11 18 20 21 19 13 10 13 17 15 14 17 15 15 21 27 17 5 6 6 10 29 25 28 30 31 33 32 29 29 28 27
2 4 2 5 5 6 5 13 12 6 16 15 13 15 16 18 17 13 10 15 15 12 11 20 18 17 19 20 20 7 0 8 14 18 21 30 31 32 32 31 28 26 27 23
4 2 4 6 6 10 8 13 9 14 11 15 16 13 13 16 12 13 14 16 12 10 13 18 17 12 14 16 14 14 10 16 23 13 21 28 29 26 30 31 30 27 23 19
8 6 5 6 10 10 11 13 15 17 17 18 16 14 15 12 13 17 18 16 16 15 16 18 14 12 16 15 12 1 3 5 12 14 22 22 26 24 24 22 20 25 26 28
3 5 3 13 15 14 17 19 20 19 18 11 9 13 16 17 20 16 14 16 16 17 16 14 15 16 16 13 14 7 3 13 8 12 21 23 21 19 23 24 18 20 21 22
Wind_Direction
1 70 219 235 206 237 261 274 263 275 289 324 300 301 305 277 256 280 288 290 292 302 310 327 324 324 316 262 243 234 241 235 223 208 212 219 224 229 231 232 232 233 244 251
15 298 239 273 275 189 174 187 279 270 342 311 301 290 294 291 258 237 256 281 291 300 314 321 328 323 319 306 261 247 238 241 230 218 219 213 213 223 228 233 231 236 243 251
155 253 323 324 315 355 355 265 259 277 295 254 279 279 265 277 279 272 270 269 290 284 295 301 309 312 312 308 292 259 245 237 233 233 228 225 214 219 229 234 232 232 237 245
229 264 301 311 269 116 312 254 285 307 336 297 44 289 187 219 260 279 288 269 266 278 304 311 311 305 301 296 300 295 264 245 237 230 218 220 215 213 228 231 225 231 234 237
237 210 281 263 227 176 236 249 265 270 270 300 207 264 157 315 283 261 273 298 330 328 315 308 307 306 302 296 291 294 288 265 244 229 219 218 216 222 225 220 214 221 227 227
252 237 191 209 221 205 290 315 316 329 76 259 217 196 284 222 260 320 282 307 308 307 303 298 296 300 300 300 286 282 279 263 246 228 222 214 214 214 212 215 213 220 216 217
327 247 346 103 323 351 54 51 322 327 332 229 299 304 262 298 296 237 260 278 279 271 278 289 296 303 303 298 295 279 269 261 249 230 225 218 216 213 219 224 221 211 207 206
276 317 180 109 181 221 242 169 168 262 257 280 293 236 261 237 214 229 239 263 275 287 288 286 290 289 291 289 294 282 258 245 236 224 220 217 216 212 223 226 221 217 217 214
270 271 300 298 303 127 261 220 208 209 280 357 235 270 299 273 247 292 293 296 299 306 309 301 297 295 291 288 292 283 260 241 228 223 218 212 211 214 223 225 220 217 220 214
217 284 241 261 22 272 175 190 274 5 290 266 274 267 246 276 280 308 298 299 311 312 306 301 296 288 287 295 290 288 256 239 225 216 211 208 211 217 221 220 213 214 216 208
165 182 284 21 218 206 307 303 189 160 179 246 282 247 224 266 270 268 273 297 303 314 307 300 297 289 287 303 293 283 252 223 217 217 211 206 213 215 214 216 215 212 209 202
200 162 272 247 273 236 226 236 180 139 264 241 258 275 251 241 253 272 271 285 317 329 312 302 294 277 303 314 301 293 235 211 212 213 213 210 208 209 211 213 213 208 200 200
187 244 305 312 358 2 122 188 198 189 287 233 254 266 234 261 285 267 254 275 321 338 309 299 281 301 339 313 304 284 235 218 205 206 204 204 205 202 205 205 201 199 197 194
266 192 220 248 261 233 282 270 252 217 242 255 242 273 287 288 281 283 245 269 309 332 302 325 333 336 321 309 327 305 253 207 194 190 188 182 190 192 194 194 195 194 192 185
164 218 206 243 264 274 271 273 272 256 247 247 270 269 279 285 293 301 283 289 318 321 346 352 343 321 310 324 333 340 237 209 180 164 163 168 176 184 186 185 184 183 183 180
177 262 255 280 274 267 278 274 263 255 256 260 262 263 257 284 303 309 300 313 306 306 331 344 282 297 339 327 315 333 13 175 168 154 153 161 170 172 174 172 172 174 172 175
179 193 297 278 307 315 280 246 248 241 232 236 252 262 279 296 297 322 313 307 316 334 322 311 303 321 331 326 332 320 3 180 152 148 148 151 152 153 155 157 158 161 166 168
208 199 209 279 25 243 245 237 257 264 249 242 280 278 249 261 278 304 281 311 331 325 303 310 320 328 322 324 333 331 19 129 150 147 148 151 148 141 138 142 144 155 162 166
209 202 237 226 215 287 289 316 202 352 295 220 232 260 254 295 305 284 216 324 314 310 304 306 307 309 312 318 335 352 4 32 170 159 154 154 145 139 143 142 152 159 162 164
166 206 209 174 242 238 234 247 49 65 278 240 231 269 283 339 305 299 309 320 312 317 309 301 310 317 311 316 314 329 324 39 355 183 164 157 146 146 144 154 155 158 161 164
150 184 232 251 265 278 253 149 81 244 256 309 291 293 285 288 270 293 306 303 308 308 309 314 317 318 310 320 326 315 259 162 296 246 158 152 150 148 155 157 159 160 163 161
182 199 210 212 229 264 145 81 208 256 264 270 273 274 280 283 286 285 288 301 315 314 320 314 310 320 318 325 330 293 285 166 257 319 160 143 145 148 156 156 157 158 159 151
305 196 248 213 231 240 227 265 277 250 275 279 271 261 263 271 275 285 295 302 305 310 305 317 318 317 315 329 341 354 62 218 248 275 147 135 144 151 154 151 148 149 155 145
294 263 247 329 269 269 284 286 299 289 261 276 269 256 271 270 278 284 291 292 292 303 302 312 309 307 301 327 336 312 190 233 283 191 132 136 141 144 150 155 159 155 153 147
255 321 259 255 282 305 271 295 288 288 290 287 277 273 268 270 275 279 284 285 290 297 303 299 296 287 294 318 332 302 42 288 334 168 133 136 143 143 138 141 155 165 174 175
208 221 253 290 307 290 281 292 292 294 292 297 296 292 282 278 276 277 283 286 291 289 287 282 284 282 294 306 334 298 269 333 351 157 140 142 139 141 147 149 144 165 175 186